DW5977 Weather Reports


Display with metric or nautical units.
time (UTC)temp
F
wind
direction
speed
MPH
gust
MPH
rain 1hr
in
rain 24hr
in
rain mn
in
humidity
%
barometer
mb
20260507215503 53 231 4.0 9.0 0.00 0.00 0.00 52 1009.8
20260507215003 52 223 4.0 9.0 0.00 0.00 0.00 53 1009.8
20260507214503 52 233 4.0 9.0 0.00 0.00 0.00 54 1009.8
20260507214024 52 245 4.0 9.0 0.00 0.00 0.00 55 1009.9
20260507213503 52 243 4.0 9.0 0.00 0.00 0.00 57 1009.9
20260507213024 52 241 4.0 8.0 0.00 0.00 0.00 56 1009.8
20260507212524 52 249 3.0 8.0 0.00 0.00 0.00 55 1009.9
20260507212003 52 246 2.0 8.0 0.00 0.00 0.00 56 1009.8
20260507211503 52 258 3.0 8.0 0.00 0.00 0.00 56 1009.8
20260507211003 52 262 3.0 10.0 0.00 0.00 0.00 54 1009.7
20260507210503 53 259 4.0 10.0 0.00 0.00 0.00 49 1009.8
20260507210024 53 255 4.0 10.0 0.00 0.00 0.00 46 1009.7
20260507205503 54 246 5.0 10.0 0.00 0.00 0.00 50 1009.7
20260507205024 54 247 5.0 12.0 0.00 0.00 0.00 46 1009.7
20260507204503 53 242 6.0 13.0 0.00 0.00 0.00 44 1009.8
20260507204003 53 239 6.0 15.0 0.00 0.00 0.00 44 1009.8
20260507203503 54 249 6.0 15.0 0.00 0.00 0.00 39 1009.8
20260507203024 54 252 6.0 15.0 0.00 0.00 0.00 41 1009.7
20260507202503 54 250 6.0 13.0 0.00 0.00 0.00 42 1009.7
20260507202003 54 255 6.0 13.0 0.00 0.00 0.00 40 1009.8
20260507201503 54 249 5.0 13.0 0.00 0.00 0.00 43 1009.7
20260507201003 54 239 6.0 11.0 0.00 0.00 0.00 44 1009.8
20260507200503 54 245 6.0 12.0 0.00 0.00 0.00 45 1009.9
20260507200003 54 264 4.0 12.0 0.00 0.00 0.00 43 1009.9
20260507195503 54 275 3.0 8.0 0.00 0.00 0.00 49 1010.0
20260507195003 54 306 3.0 8.0 0.00 0.00 0.00 53 1010.0
20260507194503 54 318 3.0 7.0 0.00 0.00 0.00 54 1010.0
20260507194003 53 296 4.0 9.0 0.00 0.00 0.00 53 1010.1
20260507193503 53 311 4.0 9.0 0.00 0.00 0.00 53 1010.2
20260507193024 53 315 4.0 10.0 0.00 0.00 0.00 55 1010.2
20260507192524 53 314 5.0 10.0 0.00 0.00 0.00 54 1010.2
20260507192003 53 307 5.0 10.0 0.00 0.00 0.00 55 1010.2
20260507191503 53 276 5.0 15.0 0.00 0.00 0.00 55 1010.2
20260507191003 54 263 6.0 15.0 0.00 0.00 0.00 52 1010.3
20260507190503 55 255 5.0 13.0 0.00 0.00 0.00 41 1010.2
20260507190004 55 238 5.0 15.0 0.00 0.00 0.00 45 1010.2
20260507185524 54 235 6.0 15.0 0.00 0.00 0.00 48 1010.2
20260507185003 54 243 6.0 14.0 0.00 0.00 0.00 46 1010.3
20260507184503 55 254 5.0 14.0 0.00 0.00 0.00 43 1010.5
20260507184024 55 261 6.0 14.0 0.00 0.00 0.00 46 1010.4
20260507183503 54 261 6.0 14.0 0.00 0.00 0.00 44 1010.3
20260507183003 54 259 6.0 14.0 0.00 0.00 0.00 45 1010.2
20260507182503 55 259 5.0 12.0 0.00 0.00 0.00 45 1010.2
20260507182003 55 249 5.0 11.0 0.00 0.00 0.00 43 1010.2
20260507181503 55 250 5.0 11.0 0.00 0.00 0.00 46 1010.2
20260507181003 54 246 6.0 13.0 0.00 0.00 0.00 41 1010.2
20260507180503 54 238 6.0 13.0 0.00 0.00 0.00 45 1010.3
20260507180003 55 240 4.0 11.0 0.00 0.00 0.00 48 1010.3
20260507175525 56 242 4.0 12.0 0.00 0.00 0.00 47 1010.3
20260507175003 55 252 5.0 12.0 0.00 0.00 0.00 48 1010.4
20260507174524 54 246 5.0 11.0 0.00 0.00 0.00 47 1010.3
20260507174003 54 253 5.0 14.0 0.00 0.00 0.00 45 1010.4
20260507173503 54 273 5.0 14.0 0.00 0.00 0.00 43 1010.6
20260507173024 55 274 4.0 14.0 0.00 0.00 0.00 42 1010.6
20260507172524 54 260 4.0 9.0 0.00 0.00 0.00 47 1010.6
20260507172024 53 258 5.0 12.0 0.00 0.00 0.00 46 1010.6
20260507171524 53 250 5.0 12.0 0.00 0.00 0.00 45 1010.8
20260507171003 53 220 4.0 10.0 0.00 0.00 0.00 46 1010.8
20260507170524 54 225 4.0 9.0 0.00 0.00 0.00 43 1010.8
20260507170003 53 251 4.0 9.0 0.00 0.00 0.00 48 1010.9
20260507165503 53 256 4.0 10.0 0.00 0.01 0.00 49 1010.9
20260507165003 54 246 3.0 10.0 0.00 0.01 0.00 50 1010.9
20260507164503 55 220 3.0 7.0 0.00 0.01 0.00 53 1010.9
20260507164003 53 222 4.0 11.0 0.00 0.01 0.00 52 1011.0
20260507163503 53 226 5.0 11.0 0.00 0.01 0.00 49 1011.0
20260507163003 52 232 4.0 11.0 0.00 0.01 0.00 52 1011.1
20260507162503 53 238 4.0 10.0 0.00 0.01 0.00 54 1011.1
20260507162003 53 237 3.0 10.0 0.00 0.01 0.00 53 1011.2
20260507161503 52 233 3.0 8.0 0.00 0.01 0.00 52 1011.1
20260507161024 53 249 3.0 8.0 0.00 0.01 0.00 53 1011.2
20260507160524 53 237 2.0 7.0 0.00 0.01 0.00 54 1011.2
20260507160003 53 225 3.0 7.0 0.00 0.01 0.00 57 1011.3
20260507155503 52 233 3.0 7.0 0.00 0.01 0.00 56 1011.4
20260507155024 52 234 3.0 8.0 0.00 0.01 0.00 56 1011.4
20260507154503 52 245 3.0 8.0 0.00 0.01 0.00 57 1011.5
20260507154003 51 254 4.0 9.0 0.00 0.01 0.00 54 1011.5
20260507153503 52 265 3.0 9.0 0.00 0.01 0.00 54 1011.5
20260507153003 51 257 3.0 8.0 0.00 0.01 0.00 55 1011.6
20260507152503 52 267 3.0 10.0 0.00 0.01 0.00 57 1011.6
20260507152003 50 261 4.0 10.0 0.00 0.01 0.00 58 1011.7
20260507151503 50 236 4.0 10.0 0.00 0.01 0.00 58 1011.6
20260507151003 50 237 4.0 8.0 0.00 0.01 0.00 58 1011.6
20260507150503 50 245 4.0 9.0 0.00 0.01 0.00 59 1011.6
20260507150003 50 235 4.0 9.0 0.00 0.01 0.00 60 1011.7
20260507145503 50 233 4.0 11.0 0.00 0.01 0.00 59 1011.7
20260507145003 51 218 4.0 11.0 0.00 0.01 0.00 61 1011.7
20260507144503 50 213 5.0 10.0 0.00 0.01 0.00 62 1011.6
20260507144003 50 229 4.0 10.0 0.00 0.01 0.00 62 1011.7
20260507143503 49 228 3.0 11.0 0.00 0.01 0.00 62 1011.7
20260507143003 50 217 3.0 11.0 0.00 0.01 0.00 64 1011.7
20260507142503 49 202 2.0 8.0 0.00 0.01 0.00 62 1011.7
20260507142003 49 203 2.0 8.0 0.00 0.01 0.00 63 1011.8
20260507141503 49 243 2.0 5.0 0.00 0.01 0.00 64 1011.8
20260507141003 48 227 3.0 8.0 0.00 0.01 0.00 66 1011.9
20260507140524 48 172 2.0 8.0 0.00 0.01 0.00 64 1011.9
20260507140003 48 136 2.0 6.0 0.00 0.01 0.00 65 1011.9
20260507135503 47 124 1.0 5.0 0.00 0.01 0.00 67 1012.0
20260507135003 47 119 2.0 4.0 0.00 0.01 0.00 68 1012.0
20260507134503 47 112 1.0 4.0 0.00 0.01 0.00 67 1012.1
20260507134003 47 105 1.0 3.0 0.00 0.01 0.00 69 1012.1
20260507133503 46 105 1.0 3.0 0.00 0.01 0.00 69 1012.1
20260507133003 46 98 1.0 6.0 0.00 0.01 0.00 70 1012.2
20260507132503 46 93 2.0 6.0 0.00 0.01 0.00 71 1012.2
20260507132003 46 88 1.0 6.0 0.00 0.01 0.00 74 1012.2
20260507131503 45 83 1.0 4.0 0.00 0.01 0.00 77 1012.2
20260507131003 45 80 2.0 4.0 0.00 0.01 0.00 78 1012.1
20260507130503 44 96 2.0 4.0 0.00 0.01 0.00 80 1012.2
20260507130003 43 112 3.0 7.0 0.00 0.02 0.00 81 1012.4
20260507125503 43 95 2.0 7.0 0.00 0.02 0.00 84 1012.3
20260507125003 42 98 2.0 5.0 0.00 0.02 0.00 89 1012.5
20260507124524 42 129 2.0 6.0 0.00 0.02 0.00 91 1012.5
20260507124003 42 137 2.0 6.0 0.00 0.02 0.00 91 1012.5
20260507123524 42 276 1.0 4.0 0.00 0.03 0.00 93 1012.5
20260507123003 41 282 1.0 3.0 0.00 0.03 0.00 93 1012.5
20260507122503 41 282 0.0 2.0 0.00 0.03 0.00 93 1012.6
20260507122024 41 282 0.0 1.0 0.00 0.04 0.00 93 1012.6
20260507121503 40 0 0.0 0.0 0.00 0.04 0.00 92 1012.6
20260507121003 40 0 0.0 0.0 0.00 0.04 0.00 93 1012.5
20260507120524 40 0 0.0 0.0 0.00 0.04 0.00 93 1012.4
20260507120003 40 0 0.0 0.0 0.00 0.04 0.00 93 1012.6
20260507115503 39 0 0.0 0.0 0.00 0.04 0.00 92 1012.6
20260507115003 39 0 0.0 0.0 0.00 0.04 0.00 92 1012.6
20260507114503 39 0 0.0 0.0 0.00 0.04 0.00 92 1012.7
20260507114003 39 0 0.0 0.0 0.00 0.05 0.00 92 1012.7
20260507113524 39 0 0.0 0.0 0.00 0.05 0.00 92 1012.7
20260507113003 39 0 0.0 0.0 0.00 0.05 0.00 93 1012.6
20260507112503 39 0 0.0 0.0 0.00 0.05 0.00 92 1012.5
20260507112024 39 0 0.0 0.0 0.00 0.06 0.00 92 1012.5
20260507111503 38 0 0.0 0.0 0.00 0.06 0.00 93 1012.4
20260507111003 38 0 0.0 0.0 0.00 0.07 0.00 92 1012.2
20260507110503 38 0 0.0 0.0 0.00 0.07 0.00 92 1012.1
20260507110003 38 0 0.0 0.0 0.00 0.07 0.00 92 1011.9
20260507105503 37 0 0.0 0.0 0.00 0.08 0.00 92 1011.9
20260507105003 37 0 0.0 0.0 0.00 0.08 0.00 92 1011.9
20260507104503 37 0 0.0 0.0 0.00 0.08 0.00 92 1012.0
20260507104024 37 0 0.0 0.0 0.00 0.09 0.00 92 1011.9
20260507103503 37 0 0.0 0.0 0.00 0.09 0.00 92 1011.9
20260507103003 37 0 0.0 0.0 0.00 0.10 0.00 92 1011.8
20260507102524 37 0 0.0 0.0 0.00 0.10 0.00 92 1011.7
20260507102003 36 0 0.0 0.0 0.00 0.10 0.00 92 1011.7
20260507101503 36 0 0.0 0.0 0.00 0.11 0.00 92 1011.8
20260507101024 36 0 0.0 0.0 0.00 0.11 0.00 92 1011.8
20260507100503 36 0 0.0 0.0 0.00 0.12 0.00 92 1011.7
20260507100003 35 0 0.0 0.0 0.00 0.12 0.00 92 1011.7
20260507095503 35 0 0.0 0.0 0.00 0.13 0.00 92 1011.6
20260507095003 35 0 0.0 0.0 0.00 0.13 0.00 91 1011.6
20260507094503 35 0 0.0 0.0 0.00 0.14 0.00 91 1011.6
20260507094003 35 0 0.0 0.0 0.00 0.14 0.00 91 1011.7
20260507093503 35 0 0.0 0.0 0.00 0.15 0.00 92 1011.7
20260507093003 34 0 0.0 0.0 0.00 0.15 0.00 91 1011.7
20260507092503 34 0 0.0 0.0 0.00 0.16 0.00 91 1011.8
20260507092003 34 0 0.0 0.0 0.00 0.17 0.00 91 1011.7
20260507091503 35 0 0.0 0.0 0.00 0.17 0.00 91 1011.7
20260507091003 35 0 0.0 0.0 0.00 0.18 0.00 91 1011.6
20260507090503 35 0 0.0 0.0 0.00 0.19 0.00 91 1011.7
20260507090003 35 0 0.0 0.0 0.00 0.20 0.00 91 1011.7
20260507085503 35 0 0.0 0.0 0.00 0.21 0.00 91 1011.7
20260507085003 35 0 0.0 0.0 0.00 0.22 0.00 90 1011.8
20260507084503 35 0 0.0 0.0 0.00 0.22 0.00 90 1011.7
20260507084003 35 0 0.0 0.0 0.00 0.23 0.00 90 1011.8
20260507083503 36 0 0.0 0.0 0.00 0.24 0.00 90 1011.9
20260507083003 36 0 0.0 0.0 0.00 0.25 0.00 90 1011.8
20260507082503 36 0 0.0 0.0 0.00 0.26 0.00 90 1011.7
20260507082003 36 0 0.0 0.0 0.00 0.26 0.00 90 1011.7
20260507081503 36 0 0.0 0.0 0.00 0.27 0.00 90 1011.7
20260507081003 36 0 0.0 0.0 0.00 0.27 0.00 90 1011.7
20260507080503 37 0 0.0 0.0 0.00 0.27 0.00 90 1011.7
20260507080003 37 0 0.0 0.0 0.00 0.28 0.00 90 1011.8
20260507075503 37 0 0.0 0.0 0.00 0.28 0.00 90 1011.8
20260507075003 37 0 0.0 0.0 0.00 0.28 0.00 90 1011.8
20260507074503 37 0 0.0 0.0 0.00 0.29 0.00 90 1011.7
20260507074003 37 0 0.0 0.0 0.00 0.29 0.00 90 1011.7
20260507073524 37 0 0.0 0.0 0.00 0.29 0.00 90 1011.7
20260507073003 38 0 0.0 0.0 0.00 0.30 0.00 90 1011.8
20260507072503 38 0 0.0 0.0 0.00 0.30 0.00 89 1011.7
20260507072003 38 0 0.0 0.0 0.00 0.30 0.00 90 1011.6
20260507071503 38 0 0.0 0.0 0.00 0.31 0.00 90 1011.7
20260507071003 39 0 0.0 0.0 0.00 0.31 0.00 90 1011.6
20260507070503 39 0 0.0 0.0 0.00 0.32 0.00 90 1011.6
20260507070004 39 0 0.0 0.0 0.00 0.33 0.00 89 1011.7
20260507065503 39 0 0.0 0.0 0.00 0.33 0.00 90 1011.8
20260507065003 40 0 0.0 0.0 0.00 0.34 0.00 89 1011.9
20260507064503 40 0 0.0 0.0 0.00 0.35 0.00 90 1012.0
20260507064003 40 0 0.0 0.0 0.00 0.35 0.00 89 1012.2
20260507063524 40 0 0.0 0.0 0.00 0.36 0.00 89 1012.2
20260507063003 41 0 0.0 0.0 0.00 0.38 0.00 89 1012.2
20260507062503 41 0 0.0 0.0 0.00 0.38 0.00 89 1012.2
20260507062003 41 0 0.0 0.0 0.00 0.39 0.00 89 1012.2
20260507061503 41 0 0.0 0.0 0.00 0.40 0.00 89 1012.0
20260507061003 41 0 0.0 0.0 0.00 0.40 0.00 89 1012.0
20260507060503 41 0 0.0 0.0 0.00 0.41 0.00 89 1012.0
20260507060003 42 0 0.0 0.0 0.00 0.41 0.00 89 1012.1
20260507055503 42 0 0.0 0.0 0.00 0.42 0.00 89 1012.2
20260507055003 42 0 0.0 0.0 0.00 0.42 0.00 89 1012.3
20260507054503 42 0 0.0 0.0 0.00 0.43 0.00 89 1012.3
20260507054003 42 0 0.0 0.0 0.00 0.43 0.00 88 1012.2
20260507053503 42 0 0.0 0.0 0.00 0.44 0.00 88 1012.4
20260507053024 42 0 0.0 0.0 0.00 0.45 0.00 88 1012.4
20260507052503 42 0 0.0 0.0 0.00 0.46 0.00 88 1012.5
20260507052003 42 0 0.0 0.0 0.00 0.47 0.00 88 1012.5
20260507051503 42 0 0.0 0.0 0.00 0.48 0.00 88 1012.6
20260507051003 42 0 0.0 0.0 0.00 0.49 0.00 88 1012.6
20260507050503 43 0 0.0 0.0 0.00 0.50 0.00 87 1012.6
20260507050003 43 0 0.0 0.0 0.00 0.51 0.00 88 1012.7
20260507045503 43 0 0.0 0.0 0.00 0.52 0.00 87 1012.7
20260507045003 43 0 0.0 0.0 0.00 0.54 0.00 87 1012.6
20260507044503 43 0 0.0 0.0 0.00 0.55 0.00 87 1012.7
20260507044003 43 0 0.0 0.0 0.00 0.56 0.00 87 1012.8
20260507043503 43 0 0.0 0.0 0.00 0.57 0.00 87 1012.7
20260507043003 43 0 0.0 0.0 0.00 0.58 0.00 87 1012.7
20260507042503 43 273 0.0 1.0 0.00 0.59 0.00 87 1012.6
20260507042003 43 273 0.0 1.0 0.00 0.60 0.00 87 1012.7
20260507041503 43 273 0.0 1.0 0.00 0.61 0.00 87 1012.6
20260507041003 43 273 0.0 2.0 0.00 0.62 0.00 87 1012.6
20260507040503 43 273 0.0 2.0 0.00 0.63 0.00 87 1012.6
20260507040003 43 273 0.0 2.0 0.00 0.63 0.00 87 1012.6
20260507035503 43 273 0.0 1.0 0.00 0.63 0.63 87 1012.5
20260507035003 44 273 0.0 2.0 0.00 0.64 0.63 87 1012.5
20260507034503 43 273 0.0 2.0 0.00 0.64 0.63 87 1012.4
20260507034003 44 274 1.0 3.0 0.00 0.65 0.63 87 1012.5
20260507033503 44 275 1.0 3.0 0.00 0.65 0.63 87 1012.5
20260507033024 44 275 1.0 3.0 0.00 0.66 0.63 87 1012.6
20260507032503 44 276 1.0 3.0 0.00 0.66 0.63 87 1012.5
20260507032003 44 279 1.0 3.0 0.00 0.66 0.63 87 1012.5
20260507031503 44 279 1.0 3.0 0.00 0.67 0.63 87 1012.5
20260507031003 44 279 0.0 2.0 0.00 0.68 0.63 87 1012.5
20260507030503 43 291 1.0 4.0 0.00 0.68 0.63 87 1012.6
20260507030003 43 297 1.0 4.0 0.00 0.69 0.63 87 1012.7
20260507025524 43 308 0.0 2.0 0.00 0.70 0.63 87 1012.7
20260507025003 43 308 0.0 2.0 0.00 0.71 0.63 87 1012.6
20260507024503 43 308 0.0 2.0 0.00 0.72 0.63 87 1012.5
20260507024003 43 308 0.0 1.0 0.00 0.73 0.63 87 1012.5
20260507023524 43 0 0.0 0.0 0.00 0.73 0.63 87 1012.5
20260507023003 43 0 0.0 0.0 0.00 0.74 0.63 87 1012.5
20260507022503 43 0 0.0 0.0 0.00 0.74 0.63 87 1012.6
20260507022024 43 308 0.0 1.0 0.00 0.74 0.63 87 1012.6
20260507021503 43 308 0.0 1.0 0.00 0.74 0.63 87 1012.6
20260507021024 43 0 0.0 0.0 0.00 0.75 0.63 87 1012.6
20260507020503 43 308 0.0 1.0 0.00 0.75 0.63 87 1012.7
20260507020003 43 308 0.0 1.0 0.00 0.75 0.63 87 1012.7
20260507015503 43 308 0.0 1.0 0.00 0.75 0.63 87 1012.7
20260507015024 43 0 0.0 0.0 0.00 0.75 0.63 87 1012.8
20260507014524 43 0 0.0 0.0 0.00 0.75 0.63 87 1012.8
20260507014024 43 308 0.0 1.0 0.00 0.75 0.63 87 1012.8
20260507013524 43 308 0.0 1.0 0.00 0.76 0.63 87 1012.8
20260507013003 43 0 0.0 0.0 0.00 0.76 0.63 87 1012.9
20260507012503 43 0 0.0 0.0 0.00 0.76 0.63 87 1012.8
20260507012003 44 308 0.0 1.0 0.00 0.77 0.63 87 1012.6
20260507011524 44 308 0.0 1.0 0.00 0.77 0.63 87 1012.5
20260507011024 44 308 0.0 1.0 0.00 0.77 0.63 87 1012.5
20260507010503 44 308 0.0 1.0 0.00 0.78 0.63 86 1012.3
20260507010003 44 0 0.0 0.0 0.00 0.78 0.63 86 1012.3
20260507005524 44 0 0.0 0.0 0.00 0.79 0.63 86 1012.2
20260507005024 43 0 0.0 0.0 0.00 0.79 0.63 86 1012.2
20260507004503 44 0 0.0 0.0 0.00 0.80 0.63 86 1012.2
20260507004003 44 308 0.0 2.0 0.00 0.81 0.63 86 1012.2
20260507003503 44 308 0.0 2.0 0.00 0.82 0.63 86 1012.2
20260507003003 44 308 0.0 2.0 0.00 0.83 0.63 86 1012.1
20260507002503 44 308 0.0 2.0 0.00 0.84 0.63 86 1011.9
20260507002003 44 308 1.0 3.0 0.00 0.85 0.63 86 1011.9
20260507001503 44 308 1.0 3.0 0.00 0.85 0.63 85 1011.8
20260507001003 44 308 1.0 3.0 0.00 0.85 0.63 85 1011.8
20260507000503 44 308 1.0 3.0 0.00 0.86 0.63 85 1011.8
20260507000003 44 309 0.0 2.0 0.00 0.87 0.63 85 1011.7
20260506235503 44 309 0.0 3.0 0.00 0.87 0.63 86 1011.6
20260506235003 44 309 0.0 3.0 0.00 0.88 0.63 86 1011.6
20260506234503 44 309 0.0 1.0 0.00 0.88 0.63 86 1011.6
20260506234003 44 309 0.0 3.0 0.00 0.89 0.63 86 1011.7
20260506233503 44 309 1.0 3.0 0.00 0.90 0.63 86 1011.6
20260506233003 44 309 1.0 2.0 0.00 0.91 0.63 86 1011.6
20260506232503 44 309 1.0 3.0 0.00 0.91 0.63 86 1011.7
20260506232003 44 309 1.0 3.0 0.00 0.92 0.63 86 1011.6
20260506231503 44 309 1.0 4.0 0.00 0.92 0.63 86 1011.6
20260506231024 44 309 1.0 4.0 0.00 0.93 0.63 86 1011.6
20260506230503 44 309 1.0 4.0 0.00 0.93 0.63 86 1011.4
20260506230003 44 310 2.0 4.0 0.00 0.94 0.63 86 1011.4
20260506225524 44 311 2.0 4.0 0.00 0.95 0.63 87 1011.4
20260506225024 44 306 1.0 4.0 0.00 0.96 0.63 87 1011.4
20260506224524 44 304 2.0 4.0 0.00 0.97 0.63 87 1011.4
20260506224003 44 299 2.0 4.0 0.00 0.98 0.63 87 1011.3
20260506223503 44 298 2.0 8.0 0.00 0.99 0.63 87 1011.1
20260506223024 44 299 2.0 8.0 0.00 1.00 0.63 87 1010.9
20260506222503 44 293 2.0 7.0 0.00 1.01 0.63 87 1011.0
20260506222003 44 289 2.0 9.0 0.00 1.02 0.63 87 1010.9
20260506221503 44 290 3.0 9.0 0.00 1.04 0.63 87 1010.7
20260506221003 44 288 3.0 9.0 0.00 1.06 0.63 87 1010.6
20260506220503 44 297 3.0 8.0 0.00 1.07 0.63 87 1010.6
20260506220003 44 300 3.0 7.0 0.00 1.08 0.63 88 1010.6